Location: St Paul
(33.9360°N, 83.4200°W)
Time: 04:08:33
(UTC-04:00)

METEOR-M - Pass Details

Date: 28 March 2019
Orbit: 816 x 819 km, 98.4° (Epoch: 17 October)

Event Time Altitude Azimuth Distance (km) Brightness Sun altitude
Rises 06:45:56 0° 22° (NNE) 3,351 7.8 -9.3°
Reaches altitude 10° 06:48:27 10° 31° (NNE) 2,415 7.2 -8.7°
Maximum altitude 06:53:23 38° 98° (E) 1,237 5.8 -7.7°
Drops below altitude 10° 06:58:18 10° 166° (SSE) 2,404 6.7 -6.7°
Sets 07:00:48 0° 174° (S) 3,333 7.3 -6.2°
